Flag for Italy Weather past 2 weeks in Trieste, Italy

Now
50 °F

Passing clouds.


Feels Like: 50 °F
Forecast: 49 / 55 °F
Wind: 2 mph from Northeast

Location: Trieste

Current Time: Dec 19, 2014 at 4:35:50 AM

Latest Report: Dec 19, 2014 at 3:00 AM


Visibility: 13 mi

Pressure: 30.19 "Hg

Humidity: 89%

Dew point: 47 °F

Location of TriesteLocation

Historic Weather in Trieste — Graph

°F

Trieste temperature yesterday

Maximum temperature yesterday: 58 °F (at 12:00 PM)
Minimum temperature yesterday: 45 °F (at 7:00 AM)
Average temperature yesterday: 52 °F

Past Weeks' High & Low Weather Summary

 TemperatureHumidityPressure
High65 °F (Dec 12, 12:00 PM)97% (Dec 13, 9:00 AM)30.22 "Hg (Dec 13, 9:00 AM)
Low39 °F (Dec 10, 3:00 AM)6% (Dec 12, 3:00 AM)29.75 "Hg (Dec 16, 10:00 PM)
Average50 °F65%30.03 "Hg
* Reported Dec 4 3:00 AM — Dec 19 3:00 AM, Trieste, Weather by CustomWeather, © 2014

Note: Actual official high and low records may vary slightly from our data, if they occured in-between our weather recording intervals... More about our weather records

Advertising

Trieste weather history for previous 24 hours

 ConditionsComfort  
Time TempWeatherWind HumidityBarometerVisibility
3:00 AM
Dec 19
50 °FPassing clouds.2 mph89%30.19 "Hg12 mi
1:00 AM50 °FPassing clouds.3 mph87%30.18 "Hg12 mi
12:00 AM50 °FOvercast.5 mph85%30.17 "Hg12 mi
11:00 PM
Dec 18
51 °FOvercast.3 mph82%30.17 "Hg12 mi
10:00 PM51 °FOvercast.2 mph80%30.16 "Hg12 mi
9:00 PM52 °FOvercast.3 mph78%30.16 "Hg12 mi
8:00 PM51 °FOvercast.5 mph77%30.16 "Hg12 mi
7:00 PM51 °FOvercast.3 mph83%30.15 "Hg12 mi
6:00 PM51 °FOvercast.3 mph80%30.14 "Hg12 mi
5:00 PM53 °FPassing clouds.5 mph80%30.13 "Hg12 mi
4:00 PM54 °FScattered clouds.5 mph71%30.12 "Hg6 mi
3:00 PM56 °FPassing clouds.2 mph66%30.11 "Hg12 mi
2:00 PM58 °FPassing clouds.1 mph64%30.10 "Hg12 mi
1:00 PM57 °FPassing clouds.3 mph67%30.11 "Hg12 mi
12:00 PM58 °FPassing clouds.5 mph65%30.11 "Hg12 mi
11:00 AM58 °FPassing clouds.1 mph65%30.11 "Hg12 mi
10:00 AM55 °FSunny.2 mph71%30.07 "Hg12 mi
9:00 AM48 °FSunny.2 mph83%30.07 "Hg12 mi
8:00 AM45 °FSunny.2 mph89%30.06 "Hg12 mi
7:00 AM45 °FClear.3 mph87%30.02 "Hg12 mi
5:00 AM49 °FPassing clouds.5 mph78%29.98 "Hg12 mi
4:00 AM51 °FPassing clouds.No wind72%29.96 "Hg12 mi
Weather by CustomWeather, © 2014

See weather overviewHow to use our weather pages